Volver al catálogo

THOR ABLESTAR DEB

ActivoLEO
NORAD 262·DEBRIS·🇺🇸 United States

Lanzado Jun 29, 1961 desde Cape Canaveral Space Force Station

Loading…

Próximos Pases (próximas 24 horas)

TLE

ActualizadoSource: Space-Track

Época: Sep 9, 2026, 06:02 UTC

1 00262U 61015CJ  26252.25170095  .00000921  00000-0  20741-3 0  9998
2 00262  66.4608 191.9481 0054009  20.8155 339.5138 14.60459341370799

Sigue THOR ABLESTAR DEB en tiempo real con AllMySat

Download on the App Store